960525 046  0.2-  0.2-    961203 388  0.1+  0.6+    991111 834  0.6-  0.9-  

960525 046  0.1-  0.2-    961204 046  0.5+  0.8+    991112 474 (0.4+  7.4+) 

960525 046  0.0   0.1-    961204 046  0.7+  0.9+    991112 474 (0.6+  7.1+) 

960525 006 (2.3+  4.8+)   961204 046  1.1+  0.8+    991112 474 (0.2-  6.5+) 

960525 006  0.4+  1.4+    961208 897  1.2+  0.8+    991117 834  0.4-  1.5-  

960525 817  1.0-  1.0-    961208 388  0.4+  0.1+    991120 834  0.6-  1.3-  

960525 817  0.0   0.1-    961208 388  0.6+  0.3-    991121 834  0.1-  1.1-  

960525 817  0.8-  0.8-    961208 897  1.4+  1.7+    991121 834  0.4-  1.5-  

960525 817  0.3-  0.7-    961208 388  0.1+  0.1-    991203 808  0.6-  0.5+  

960525 695  0.6-  1.6-    961212 372  0.5+  1.2+    991203 808  1.0-  0.3+  

960525 695  0.5-  1.5-    961212 372  0.2-  2.0+    991205 808 (0.2-  2.8+) 

960525 421  0.4-  0.7-    961212 046  0.6+  0.0     991205 808 (0.7+  2.2+) 

960525 421  0.0   0.0     961212 046  0.4+  0.2+    2000/                   

960525 421  0.2+  0.2-    961212 046  0.4+  0.2+    000103 422  0.4+  0.5+  

960525 353  0.8+  1.7+    961214 360  0.1+  0.2+    000103 422  0.2-  0.3+  

960525 353  0.8+  1.2+    961214 360  0.2+  0.6+    000103 422  0.3+  0.6+  

960525 353  0.9+  1.7+    961214 360  0.4+  0.5+    000104 808 (1.0-  2.1+) 

960529 107 (0.7+  2.4+)   961215 587  1.4+  0.1+    000104 808 (2.5-  1.5+) 

960529 107 (1.7+  4.6+)   961216 046  0.7+  0.5+    000108 808  0.7-  1.6-  

960531 046  0.2+  0.3-    961216 046  0.5+  0.8+    000108 808  1.0-  1.8-  

960531 046  0.1+  0.3-    961216 046  0.7+  0.5+    000110 423  0.1-  1.8+  

960531 046  0.1+  0.4-    961220 897  1.8+  1.8+    000110 423  0.3+  2.0+  

960531 754 (2.4+  2.8+)   961220 897  1.5+  1.1+    000115 422  0.8-  0.4-  

960531 754 (2.3+  3.0+)   961221 046  0.0   0.6+    000115 422  0.8-  0.5-  

960531 754 (2.3+  2.7+)   961221 046  0.5-  1.2+    000115 422  0.9-  0.5-  

960531 754 (1.7+  2.6+)   961223 897 (2.9+  2.0+)   000115 422  0.7-  0.5-  

960604 834  1.0+  1.6+    961223 897 (2.4+  2.0+)   000120 423  0.9+  1.4+  

960604 834  0.7+  1.8+    961224 897 (2.3+  1.7+)   000120 423  1.0+  0.9+  

960605 421  0.1+  0.6+    961224 372  0.5+  0.3+    000201 322 (2.1+  3.0+) 

960605 421  0.0   0.5+    961228 046  1.4+  2.0+    000201 322  0.7+  1.1+  

960605 421  0.2-  0.2-    961228 046 (0.0   3.1+)   000202 422  0.1-  1.0+  

960605 900  0.0   1.2+    961228 046 (0.2-  2.9+)   000202 422  0.1+  1.3+  

960605 540  0.2-  0.5+    1997/                     000202 422  0.0   1.1+  

960605 540  0.4+  0.6+    970102 897  0.3+  1.5+    000302 474 (1.2+  2.5+) 

960605 540  0.2+  0.8+    970102 897  0.2+  1.7+    000302 474  0.6+  1.6+  

960606 605 (1.6+  6.4+)   970102 897  0.7+  1.2+    000307 474 (1.4+  2.7+) 

960606 605 (1.9+  5.7+)   970103 897 (2.2+  0.8+)   000307 474 (2.2+  4.4+) 

960606 605 (1.7+  6.5+)   970103 897  1.2+  1.2+    000307 474 (2.9+  3.6+) 

960606 605 (1.2+  6.6+)   970106 897 (2.5+  0.5+)   000412 834  1.3+  1.2+  

960606 605 (2.1+  6.3+)   970106 897  0.4+  1.1+    000420 834  0.5-  1.6-  

960606 897  0.2+  0.2+    970108 897  1.0+  1.5+    000422 834  1.9-  0.7-  

960606 897  0.4+  0.2+    970108 897 (0.8+  2.1+)   000423 834  0.3-  1.1-  

960606 897  0.4+  0.3+    970110 897 (0.8+  2.5+)   000424 834  0.7-  1.4-  

960606 045  0.0   0.1-    970116 046  0.1-  0.3-    000723 834  1.2-  1.1-  

960607 045  0.1+  0.5+    970116 046  0.1-  0.2-    000724 834  1.1-  0.0   

960607 045  0.1+  0.5+    970116 046  0.1+  0.5-    000730 474 (1.4-  2.3+) 

960607 045  0.1+  0.5+    970118 540  0.2+  0.0     000730 474 (2.0-  3.3+) 

960607 045  0.1+  0.5+    970118 897  0.1+  0.2+    000815 860  1.0-  1.7-  

960607 046  0.4+  0.1+    970119 046  0.3-  0.3+    000815 860  0.7-  1.8-  

960607 046  0.0   0.2+    970119 046  0.0   1.0+    000815 860  0.2-  2.0-  

960607 046  0.1+  0.1+    970119 046  0.1+  0.8+    001022 467 (5.1-  2.1+) 

960607 006  0.8-  1.6+    970120 897  1.2-  0.3+    001023 467  1.4+  0.2+  

960607 006  1.1-  1.4+    970120 897  0.5-  0.3-    001023 467  1.3-  0.3-  

960607 605 (1.8+  6.7+)   970122 897  0.2+  1.1-    001102 467  0.6-  0.4+  

960608 605 (1.1+  7.3+)   970126 897  0.4-  0.1-    001123 428  0.4-  0.6-  

960608 605 (2.0+  7.7+)   970126 897  0.2-  0.4-    001123 428  0.5-  0.6-  

960608 834  0.4+  1.0+    970127 089  0.5-  1.4-    001206 467  0.5-  0.0   

960608 413  0.7-  0.8-    970127 089  0.6-  1.1-    001206 467  1.4-  0.3-  

960609 046  0.4-  0.1-    970128 089  0.8-  0.2-    001207 322  1.2-  0.6-  

960609 046  0.7-  0.1-    970128 089  0.7-  0.3-    001207 322  1.0-  0.6-  

960609 046  0.7-  0.2-    970130 089  0.4-  0.6-    001207 322  1.0-  0.3-  

960611 612 (1.5+  6.4+)   970130 089  0.5-  1.2-    001222 428  1.3-  0.1+  

960611 612 (1.6+  6.7+)   970130 089  0.4-  0.2-    001222 428  1.1-  0.2+  

960611 612 (1.7+  6.3+)   970130 897  1.4-  0.4-    2001/                   

960611 107 (2.3-  1.8+)   970130 897  0.5-  0.2+    010210 808 (0.2-  3.9+) 

960611 107  1.0+  1.8+    970202 046  0.8-  0.2+    010210 808  0.3+  0.7+  

960611 596  0.0   0.7+    970202 046  0.7-  0.2+    010211 808  0.8-  0.9-  

960611 596  0.2+  0.7+    970202 046  0.6-  0.2+    010211 808  1.0-  1.0+  

960611 596  0.4+  0.7+    970202 046  0.6-  0.2+    010217 844  0.4-  0.7-  

960612 046  0.0   0.6-    970204 360  0.3-  0.5+    010217 844 (2.5-  0.4+) 

960612 046  0.0   0.7-    970204 360  0.6-  0.5+    010217 844 (0.5-  2.6-) 

NAKANO

         **** Don't distribute anyone except personal use only ****

                (C) Copyright 2001 OAA/ComputingSection

write mail from CFAD0::NAKANO on 2001-04-03 17:56:59(JST).

 



◎C/1995 O1の軌道です



    C/1995 O1 (Hale-Bopp)

Epoch 1997 Mar. 13.0 TT = JDT 2450520.5  

T 1997 Apr. 1.13720 TT                                  Nakano

q   0.9141434            (2000.0)            P               Q

z  +0.0053865      Peri.  130.58861     -0.13311867     -0.17030509

 +/-0.0000014      Node   282.47068     +0.28229105     +0.93780598

e   0.9950760      Incl.   89.42997     +0.95004799     -0.30251632

From 2635 observations 1993 Apr. 27-1998 Aug. 30, mean residual 0".80.

   Nongravitational parameters A1 = +1.11 +/- 0.03, A2 = +0.1391 +/- 0.0076.

   (1/a)org.= +0.003827, (1/a)fut.= +0.005572.

NAKANO

write mail from CFAD0::NAKANO on 1998-09-06 05:36:28(JST).

 





戻ります。